CBF121 VHHH-RCKH

Flight info

Callsign CBF121
Flight time 1h 10m
Altitude 37000
Route DUMEP V631 ENVAR M750 DADON G581 HCN
Aircraft A321/M-SDE3FGHIRWY/LB1

Departure

Time 2026-05-06 06:08
Airport Hong Kong International Airport (VHHH)

Arrival

Time 2026-05-06 07:19
Airport Kaohsiung International Airport (RCKH)
Time Latitude Longitude Altitude Speed Heading
2026-05-06 05:27 22.31184 113.92770 41 ft 0 kts 296°
2026-05-06 05:52 22.31183 113.92771 42 ft 1 kts 296°
2026-05-06 05:52 22.31177 113.92786 41 ft 2 kts 290°
2026-05-06 05:53 22.31172 113.92801 41 ft 2 kts 285°
2026-05-06 05:53 22.31169 113.92816 41 ft 2 kts 279°
2026-05-06 05:53 22.31167 113.92832 41 ft 2 kts 274°
2026-05-06 05:53 22.31167 113.92848 42 ft 2 kts 268°
2026-05-06 05:54 22.31168 113.92865 43 ft 2 kts 262°
2026-05-06 05:54 22.31170 113.92881 43 ft 2 kts 257°
2026-05-06 05:54 22.31174 113.92896 43 ft 2 kts 251°
2026-05-06 05:54 22.31180 113.92911 43 ft 2 kts 246°
2026-05-06 05:55 22.31183 113.92918 43 ft 1 kts 243°
2026-05-06 05:55 22.31184 113.92920 43 ft 0 kts 242°
2026-05-06 05:56 22.31182 113.92918 43 ft 1 kts 242°
2026-05-06 05:57 22.31158 113.92887 43 ft 8 kts 214°
2026-05-06 05:57 22.31073 113.92839 41 ft 15 kts 206°
2026-05-06 05:57 22.30965 113.92783 37 ft 18 kts 205°
2026-05-06 05:57 22.30845 113.92715 33 ft 20 kts 228°
2026-05-06 05:58 22.30791 113.92577 33 ft 20 kts 249°
2026-05-06 05:58 22.30743 113.92435 33 ft 20 kts 251°
2026-05-06 05:58 22.30795 113.92330 33 ft 18 kts 353°
2026-05-06 05:58 22.30870 113.92298 34 ft 9 kts 339°
2026-05-06 05:59 22.30936 113.92273 34 ft 10 kts 341°
2026-05-06 05:59 22.31006 113.92248 34 ft 11 kts 342°
2026-05-06 05:59 22.31088 113.92219 34 ft 12 kts 342°
2026-05-06 05:59 22.31177 113.92186 34 ft 13 kts 340°
2026-05-06 06:00 22.31271 113.92151 33 ft 15 kts 341°
2026-05-06 06:00 22.31375 113.92114 31 ft 16 kts 342°
2026-05-06 06:00 22.31488 113.92072 29 ft 17 kts 329°
2026-05-06 06:00 22.31507 113.91952 28 ft 18 kts 256°
2026-05-06 06:01 22.31466 113.91825 28 ft 17 kts 250°
2026-05-06 06:01 22.31424 113.91700 28 ft 17 kts 252°
2026-05-06 06:01 22.31384 113.91568 29 ft 18 kts 251°
2026-05-06 06:01 22.31378 113.91438 29 ft 18 kts 310°
2026-05-06 06:02 22.31399 113.91320 29 ft 17 kts 250°
2026-05-06 06:02 22.31354 113.91196 29 ft 17 kts 249°
2026-05-06 06:02 22.31313 113.91076 30 ft 17 kts 250°
2026-05-06 06:02 22.31272 113.90951 29 ft 18 kts 251°
2026-05-06 06:03 22.31230 113.90814 26 ft 19 kts 252°
2026-05-06 06:03 22.31189 113.90672 26 ft 20 kts 252°
2026-05-06 06:03 22.31144 113.90530 26 ft 19 kts 250°
2026-05-06 06:03 22.31097 113.90389 25 ft 20 kts 250°
2026-05-06 06:04 22.31051 113.90250 27 ft 18 kts 250°
2026-05-06 06:04 22.31007 113.90118 27 ft 18 kts 251°
2026-05-06 06:04 22.30999 113.90010 27 ft 12 kts 315°
2026-05-06 06:04 22.31013 113.90000 27 ft 0 kts 336°
2026-05-06 06:06 22.31033 113.89990 26 ft 9 kts 337°
2026-05-06 06:06 22.31105 113.89965 26 ft 13 kts 358°
2026-05-06 06:06 22.31164 113.90022 24 ft 0 kts 69°
2026-05-06 06:07 22.31167 113.90028 24 ft 7 kts 69°
2026-05-06 06:07 22.31270 113.90351 21 ft 82 kts 71°
2026-05-06 06:07 22.31529 113.91159 26 ft 144 kts 71°
2026-05-06 06:08 22.31905 113.92341 168 ft 179 kts 72°
2026-05-06 06:08 22.32329 113.93634 737 ft 189 kts 72°
2026-05-06 06:08 22.32752 113.94913 1654 ft 177 kts 73°
2026-05-06 06:08 22.33149 113.96115 2211 ft 173 kts 71°
2026-05-06 06:09 22.33704 113.97337 2456 ft 188 kts 61°
2026-05-06 06:09 22.34447 113.98570 2716 ft 202 kts 58°
2026-05-06 06:09 22.35255 113.99850 2994 ft 215 kts 57°
2026-05-06 06:09 22.36141 114.01246 3256 ft 233 kts 57°
2026-05-06 06:10 22.37070 114.02712 3800 ft 238 kts 57°
2026-05-06 06:10 22.37996 114.04180 4411 ft 241 kts 57°
2026-05-06 06:10 22.38956 114.05704 5015 ft 245 kts 57°
2026-05-06 06:10 22.39879 114.07256 5587 ft 248 kts 66°
2026-05-06 06:11 22.40164 114.09040 6171 ft 248 kts 100°
2026-05-06 06:11 22.39603 114.10820 6646 ft 257 kts 116°
2026-05-06 06:11 22.38828 114.12611 7013 ft 274 kts 117°
2026-05-06 06:11 22.37989 114.14552 7441 ft 289 kts 116°
2026-05-06 06:12 22.37163 114.16522 8059 ft 295 kts 115°
2026-05-06 06:12 22.36326 114.18565 8717 ft 299 kts 115°
2026-05-06 06:12 22.35498 114.20607 9312 ft 304 kts 115°
2026-05-06 06:12 22.34640 114.22732 9885 ft 309 kts 115°
2026-05-06 06:13 22.33783 114.24842 10395 ft 316 kts 116°
2026-05-06 06:13 22.32543 114.26840 10663 ft 328 kts 136°
2026-05-06 06:13 22.30673 114.28300 10937 ft 337 kts 155°
2026-05-06 06:13 22.28486 114.29379 11366 ft 345 kts 159°
2026-05-06 06:14 22.26289 114.30407 11892 ft 349 kts 158°
2026-05-06 06:14 22.24082 114.31619 12429 ft 354 kts 152°
2026-05-06 06:14 22.22006 114.33034 12947 ft 359 kts 147°
2026-05-06 06:14 22.19970 114.34613 13447 ft 363 kts 146°
2026-05-06 06:15 22.17916 114.36245 13980 ft 366 kts 145°
2026-05-06 06:15 22.15860 114.37882 14518 ft 368 kts 145°
2026-05-06 06:15 22.13798 114.39520 15015 ft 370 kts 145°
2026-05-06 06:15 22.11698 114.41182 15513 ft 373 kts 145°
2026-05-06 06:16 22.09595 114.42842 16005 ft 375 kts 145°
2026-05-06 06:16 22.07494 114.44498 16486 ft 377 kts 145°
2026-05-06 06:16 22.05374 114.46169 16941 ft 379 kts 145°
2026-05-06 06:16 22.03244 114.47846 17384 ft 381 kts 145°
2026-05-06 06:17 22.01095 114.49539 17837 ft 383 kts 145°
2026-05-06 06:17 21.98941 114.51244 18268 ft 386 kts 144°
2026-05-06 06:17 21.96889 114.53121 18674 ft 390 kts 137°
2026-05-06 06:17 21.95025 114.55261 19079 ft 394 kts 131°
2026-05-06 06:18 21.93326 114.57593 19482 ft 397 kts 128°
2026-05-06 06:18 21.91673 114.59965 19860 ft 400 kts 128°
2026-05-06 06:18 21.89984 114.62399 20245 ft 402 kts 128°
2026-05-06 06:18 21.88303 114.64795 20621 ft 405 kts 128°
2026-05-06 06:19 21.86610 114.67201 20982 ft 407 kts 128°
2026-05-06 06:19 21.84877 114.69668 21338 ft 410 kts 128°
2026-05-06 06:19 21.83161 114.72108 21683 ft 412 kts 128°
2026-05-06 06:19 21.81435 114.74557 22042 ft 414 kts 128°
2026-05-06 06:20 21.79674 114.77054 22388 ft 416 kts 128°
2026-05-06 06:20 21.77936 114.79515 22720 ft 419 kts 128°
2026-05-06 06:20 21.76192 114.82049 23043 ft 422 kts 124°
2026-05-06 06:20 21.74893 114.84886 23335 ft 426 kts 109°
2026-05-06 06:21 21.74283 114.88020 23647 ft 428 kts 94°
2026-05-06 06:21 21.74216 114.91206 23964 ft 430 kts 89°
2026-05-06 06:21 21.74254 114.94430 24238 ft 434 kts 88°
2026-05-06 06:21 21.74300 114.97671 24537 ft 436 kts 89°
2026-05-06 06:22 21.74331 115.00935 24848 ft 438 kts 89°
2026-05-06 06:22 21.74347 115.04215 25151 ft 441 kts 89°
2026-05-06 06:22 21.74351 115.07525 25453 ft 443 kts 89°
2026-05-06 06:22 21.74350 115.10831 25757 ft 444 kts 89°
2026-05-06 06:23 21.74346 115.14153 26057 ft 446 kts 89°
2026-05-06 06:23 21.74342 115.17471 26351 ft 448 kts 89°
2026-05-06 06:23 21.74337 115.20810 26641 ft 450 kts 89°
2026-05-06 06:23 21.74331 115.24194 26918 ft 452 kts 89°
2026-05-06 06:24 21.74325 115.27595 27182 ft 454 kts 89°
2026-05-06 06:24 21.74319 115.30975 27456 ft 456 kts 89°
2026-05-06 06:24 21.74312 115.34383 27743 ft 458 kts 90°
2026-05-06 06:24 21.74304 115.37796 28012 ft 460 kts 90°
2026-05-06 06:25 21.74294 115.41253 28266 ft 462 kts 90°
2026-05-06 06:25 21.74283 115.44714 28525 ft 464 kts 89°
2026-05-06 06:25 21.74261 115.51606 29146 ft 465 kts 89°
2026-05-06 06:26 21.74249 115.55074 29529 ft 463 kts 89°
2026-05-06 06:26 21.74236 115.58524 29902 ft 462 kts 89°
2026-05-06 06:26 21.74224 115.61990 30251 ft 462 kts 89°
2026-05-06 06:26 21.74212 115.65401 30589 ft 462 kts 90°
2026-05-06 06:27 21.74199 115.68873 30918 ft 461 kts 90°
2026-05-06 06:27 21.74185 115.72300 31245 ft 461 kts 89°
2026-05-06 06:27 21.74170 115.75772 31524 ft 462 kts 89°
2026-05-06 06:27 21.74154 115.79210 31776 ft 463 kts 89°
2026-05-06 06:28 21.74137 115.82669 32026 ft 465 kts 89°
2026-05-06 06:28 21.74119 115.86189 32281 ft 466 kts 89°
2026-05-06 06:28 21.74101 115.89636 32526 ft 467 kts 89°
2026-05-06 06:28 21.74083 115.93166 32768 ft 468 kts 89°
2026-05-06 06:29 21.74064 115.96664 32901 ft 470 kts 89°
2026-05-06 06:29 21.74025 116.03662 32911 ft 470 kts 89°
2026-05-06 06:30 21.73980 116.10647 32914 ft 470 kts 89°
2026-05-06 06:30 21.73932 116.17667 32915 ft 470 kts 89°
2026-05-06 06:31 21.73881 116.24678 32915 ft 470 kts 89°
2026-05-06 06:31 21.73827 116.31739 32913 ft 470 kts 89°
2026-05-06 06:32 21.73773 116.38702 32911 ft 470 kts 89°
2026-05-06 06:32 21.73715 116.45720 32913 ft 470 kts 89°
2026-05-06 06:33 21.73658 116.52729 32914 ft 469 kts 89°
2026-05-06 06:33 21.73592 116.59759 32914 ft 469 kts 89°
2026-05-06 06:34 21.73523 116.66760 32911 ft 470 kts 89°
2026-05-06 06:34 21.73701 116.73768 32910 ft 468 kts 83°
2026-05-06 06:35 21.74703 116.80660 32910 ft 467 kts 75°
2026-05-06 06:35 21.76567 116.87357 32909 ft 465 kts 67°
2026-05-06 06:36 21.78472 116.92610 32911 ft 466 kts 66°
2026-05-06 06:36 21.80774 116.98878 32910 ft 466 kts 66°
2026-05-06 06:37 21.83139 117.05382 32908 ft 466 kts 66°
2026-05-06 06:37 21.85490 117.11884 32902 ft 466 kts 66°
2026-05-06 06:38 21.87825 117.18365 32896 ft 466 kts 66°
2026-05-06 06:38 21.90167 117.24873 32896 ft 466 kts 66°
2026-05-06 06:39 21.92504 117.31380 32898 ft 465 kts 66°
2026-05-06 06:39 21.94825 117.37852 32897 ft 465 kts 66°
2026-05-06 06:40 21.97156 117.44360 32897 ft 465 kts 66°
2026-05-06 06:40 21.99742 117.50704 32898 ft 463 kts 59°
2026-05-06 06:41 22.02941 117.56680 32899 ft 461 kts 54°
2026-05-06 06:41 22.06313 117.62567 32901 ft 461 kts 54°
2026-05-06 06:42 22.09678 117.68481 32900 ft 462 kts 55°
2026-05-06 06:42 22.13023 117.74370 32903 ft 462 kts 55°
2026-05-06 06:43 22.16373 117.80267 32902 ft 462 kts 55°
2026-05-06 06:43 22.19706 117.86170 32903 ft 462 kts 55°
2026-05-06 06:44 22.23052 117.92117 32901 ft 462 kts 56°
2026-05-06 06:44 22.25637 117.98473 32904 ft 468 kts 70°
2026-05-06 06:45 22.26779 118.05415 32904 ft 473 kts 85°
2026-05-06 06:45 22.26425 118.12461 32904 ft 473 kts 96°
2026-05-06 06:46 22.25559 118.19492 32902 ft 472 kts 96°
2026-05-06 06:46 22.24714 118.26505 32904 ft 472 kts 96°
2026-05-06 06:47 22.23896 118.33486 32901 ft 472 kts 95°
2026-05-06 06:47 22.23079 118.40509 32902 ft 472 kts 95°
2026-05-06 06:48 22.22252 118.47574 32903 ft 473 kts 95°
2026-05-06 06:48 22.21434 118.54552 32903 ft 473 kts 95°
2026-05-06 06:49 22.20610 118.61620 32899 ft 473 kts 95°
2026-05-06 06:49 22.19789 118.68612 32899 ft 472 kts 96°
2026-05-06 06:50 22.18955 118.75682 32909 ft 473 kts 96°
2026-05-06 06:50 22.18120 118.82679 32905 ft 473 kts 96°
2026-05-06 06:51 22.17277 118.89705 32900 ft 472 kts 96°
2026-05-06 06:51 22.16430 118.96750 32901 ft 473 kts 95°
2026-05-06 06:52 22.15584 119.03773 32900 ft 473 kts 96°
2026-05-06 06:52 22.14735 119.10769 32899 ft 473 kts 95°
2026-05-06 06:53 22.13893 119.17777 32899 ft 473 kts 96°
2026-05-06 06:53 22.13042 119.24800 32899 ft 473 kts 96°
2026-05-06 06:54 22.12187 119.31808 32901 ft 474 kts 95°
2026-05-06 06:54 22.11322 119.38870 32897 ft 474 kts 95°
2026-05-06 06:55 22.10459 119.45892 32898 ft 474 kts 95°
2026-05-06 06:55 22.09593 119.52906 32903 ft 474 kts 95°
2026-05-06 06:56 22.08722 119.59920 32900 ft 474 kts 95°
2026-05-06 06:56 22.07846 119.66965 32896 ft 474 kts 96°
2026-05-06 06:56 22.07407 119.70504 32668 ft 474 kts 96°
2026-05-06 06:57 22.06975 119.74000 32331 ft 471 kts 96°
2026-05-06 06:57 22.06541 119.77470 31888 ft 467 kts 96°
2026-05-06 06:57 22.06110 119.80904 31350 ft 463 kts 96°
2026-05-06 06:57 22.05680 119.84326 30749 ft 462 kts 96°
2026-05-06 06:58 22.05248 119.87759 30098 ft 461 kts 97°
2026-05-06 06:58 22.04818 119.91148 29421 ft 461 kts 97°
2026-05-06 06:58 22.04387 119.94547 28738 ft 461 kts 97°
2026-05-06 06:58 22.03954 119.97954 28038 ft 461 kts 97°
2026-05-06 06:59 22.03525 120.01356 27478 ft 457 kts 97°
2026-05-06 06:59 22.03099 120.04759 26985 ft 451 kts 97°
2026-05-06 06:59 22.02686 120.08044 26507 ft 447 kts 97°
2026-05-06 06:59 22.02266 120.11372 26010 ft 442 kts 97°
2026-05-06 07:00 22.01859 120.14582 25539 ft 437 kts 97°
2026-05-06 07:00 22.01445 120.17831 25053 ft 432 kts 97°
2026-05-06 07:00 22.01037 120.21026 24573 ft 428 kts 97°
2026-05-06 07:00 22.00635 120.24163 24102 ft 424 kts 97°
2026-05-06 07:01 22.00232 120.27302 23630 ft 420 kts 97°
2026-05-06 07:01 21.99836 120.30386 23160 ft 416 kts 97°
2026-05-06 07:01 21.99442 120.33456 22683 ft 413 kts 97°
2026-05-06 07:01 21.99053 120.36472 22206 ft 410 kts 97°
2026-05-06 07:02 21.98660 120.39497 21740 ft 407 kts 97°
2026-05-06 07:02 21.98269 120.42515 21286 ft 404 kts 97°
2026-05-06 07:02 21.97882 120.45496 20839 ft 401 kts 97°
2026-05-06 07:02 21.97498 120.48453 20397 ft 398 kts 97°
2026-05-06 07:03 21.97118 120.51379 19963 ft 396 kts 97°
2026-05-06 07:03 21.96734 120.54327 19520 ft 394 kts 97°
2026-05-06 07:03 21.96358 120.57212 19080 ft 392 kts 97°
2026-05-06 07:03 21.95979 120.60108 18642 ft 390 kts 97°
2026-05-06 07:04 21.95602 120.62986 18209 ft 388 kts 97°
2026-05-06 07:04 21.95223 120.65879 17772 ft 386 kts 97°
2026-05-06 07:04 21.94852 120.68726 17334 ft 384 kts 97°
2026-05-06 07:04 21.94501 120.71564 16887 ft 383 kts 94°
2026-05-06 07:05 21.94757 120.74382 16383 ft 379 kts 70°
2026-05-06 07:05 21.95979 120.76816 15914 ft 371 kts 48°
2026-05-06 07:05 21.97942 120.78578 15454 ft 363 kts 26°
2026-05-06 07:05 22.00291 120.79438 14984 ft 355 kts
2026-05-06 07:06 22.02739 120.79356 14527 ft 348 kts 345°
2026-05-06 07:06 22.04948 120.78395 14077 ft 341 kts 326°
2026-05-06 07:06 22.06695 120.76715 13604 ft 335 kts 307°
2026-05-06 07:06 22.07860 120.74579 13202 ft 332 kts 296°
2026-05-06 07:07 22.09027 120.72398 12706 ft 333 kts 305°
2026-05-06 07:07 22.10644 120.70653 12243 ft 334 kts 319°
2026-05-06 07:07 22.12502 120.69100 11786 ft 334 kts 321°
2026-05-06 07:07 22.14352 120.67610 11325 ft 334 kts 322°
2026-05-06 07:08 22.16230 120.66119 10883 ft 333 kts 322°
2026-05-06 07:08 22.18101 120.64645 10430 ft 333 kts 322°
2026-05-06 07:08 22.19947 120.63195 10229 ft 321 kts 322°
2026-05-06 07:08 22.21714 120.61811 10139 ft 309 kts 322°
2026-05-06 07:09 22.23416 120.60477 10015 ft 298 kts 322°
2026-05-06 07:09 22.25109 120.59148 9631 ft 297 kts 322°
2026-05-06 07:09 22.26778 120.57838 9227 ft 297 kts 323°
2026-05-06 07:09 22.28440 120.56531 8843 ft 291 kts 323°
2026-05-06 07:10 22.30068 120.55253 8473 ft 289 kts 323°
2026-05-06 07:10 22.31700 120.53972 8110 ft 287 kts 323°
2026-05-06 07:10 22.33320 120.52700 7756 ft 286 kts 323°
2026-05-06 07:10 22.34923 120.51416 7391 ft 285 kts 322°
2026-05-06 07:11 22.36469 120.50124 7058 ft 284 kts 321°
2026-05-06 07:11 22.38031 120.48808 6691 ft 283 kts 322°
2026-05-06 07:11 22.39612 120.47530 6318 ft 283 kts 329°
2026-05-06 07:11 22.41469 120.46944 5902 ft 276 kts
2026-05-06 07:12 22.43268 120.47439 5589 ft 266 kts 30°
2026-05-06 07:12 22.44625 120.48760 5260 ft 263 kts 57°
2026-05-06 07:12 22.45382 120.50562 4947 ft 262 kts 70°
2026-05-06 07:12 22.45993 120.52416 4643 ft 262 kts 71°
2026-05-06 07:13 22.46753 120.54198 4324 ft 263 kts 52°
2026-05-06 07:13 22.48167 120.55389 3979 ft 255 kts 22°
2026-05-06 07:13 22.49873 120.55734 3688 ft 248 kts
2026-05-06 07:13 22.51569 120.55782 3566 ft 241 kts
2026-05-06 07:14 22.53263 120.55817 3557 ft 241 kts
2026-05-06 07:14 22.54941 120.55846 3497 ft 241 kts 358°
2026-05-06 07:14 22.56497 120.55290 3216 ft 234 kts 321°
2026-05-06 07:14 22.57328 120.53867 2992 ft 218 kts 279°
2026-05-06 07:15 22.57351 120.52305 2928 ft 202 kts 268°
2026-05-06 07:15 22.57304 120.50843 2721 ft 186 kts 269°
2026-05-06 07:15 22.57290 120.49496 2495 ft 171 kts 271°
2026-05-06 07:15 22.57300 120.48263 2311 ft 155 kts 272°
2026-05-06 07:16 22.57324 120.47114 2072 ft 154 kts 273°
2026-05-06 07:16 22.57353 120.45968 1860 ft 152 kts 274°
2026-05-06 07:16 22.57386 120.44824 1660 ft 152 kts 274°
2026-05-06 07:16 22.57423 120.43684 1464 ft 150 kts 274°
2026-05-06 07:17 22.57460 120.42569 1254 ft 148 kts 273°
2026-05-06 07:17 22.57494 120.41458 1053 ft 146 kts 273°
2026-05-06 07:17 22.57530 120.40363 861 ft 144 kts 272°
2026-05-06 07:17 22.57574 120.39280 639 ft 143 kts 272°
2026-05-06 07:18 22.57611 120.38213 448 ft 141 kts 273°
2026-05-06 07:18 22.57650 120.37151 258 ft 140 kts 270°
2026-05-06 07:18 22.57672 120.36108 92 ft 138 kts 272°
2026-05-06 07:18 22.57698 120.35141 39 ft 108 kts 273°
2026-05-06 07:19 22.57722 120.34648 39 ft 32 kts 272°
2026-05-06 07:19 22.57728 120.34427 39 ft 27 kts 270°
2026-05-06 07:19 22.57727 120.34225 39 ft 26 kts 269°
2026-05-06 07:19 22.57637 120.34135 39 ft 19 kts 186°
2026-05-06 07:20 22.57504 120.34122 39 ft 18 kts 184°
2026-05-06 07:20 22.57412 120.34152 39 ft 13 kts 105°
2026-05-06 07:20 22.57404 120.34251 39 ft 13 kts 93°
2026-05-06 07:20 22.57435 120.34325 39 ft 10 kts 24°
2026-05-06 07:21 22.57475 120.34333 39 ft 0 kts
2026-05-06 07:21 22.57477 120.34333 39 ft 0 kts 359°